Gulf Breeze, FL (32561)

3:41 PM CDT on September 03, 2015 (GMT -0500)
Waterford Sound | | Change Station
CLOSE
Current Station
Personal Weather Station
Location: Gulf Breeze, FL
Elevation: 49 ft
Nearby Weather Stations

Elev 49 ft 30.40 °N, 86.97 °W | Updated 7 minutes ago

Partly Cloudy
Partly Cloudy
91.0 °F
Feels Like 104 °F
N
3.7
Wind Variable Wind from West

Today
High -- | Low -- °F
--% Chance of Precip.
Yesterday
High -- | Low -- °F
Precip. -- in
6:25 AM 7:08 PM
Waning Gibbous, 67% visible
Pressure 29.96 in
Visibility 10.0 miles
Clouds Clear
Heat Index 104 °F
Dew Point 77 °F
Humidity 63%
Rainfall 0.00 in
Snow Depth Not available.
UV 9 out of 12
Pollen 7.40 out of 12
Air Quality Not available.
Flu Activity Not available.
METAR KPNS 031953Z 21011KT 10SM CLR 31/23 A2996 RMK AO2 SLP145 T03110228 $
Pressure 29.96 in
Visibility 10.0 miles
Clouds Clear
Heat Index 104 °F
Dew Point 77 °F
Humidity 63%
Rainfall 0.00 in
Snow Depth Not available.
UV 9 out of 12
Pollen 7.40 out of 12
Air Quality Not available.
Flu Activity Not available.
METAR KPNS 031953Z 21011KT 10SM CLR 31/23 A2996 RMK AO2 SLP145 T03110228 $

10-Day Weather Forecast

×

Almanac

Astronomy

Sep. 03, 2015 Rise Set
Actual Time
Civil Twilight
Nautical Twilight
Astronomical Twilight
Moon
Length of Visible Light
Length of Day
Tomorrow will be .
, % of the Moon is Illuminated

Today's Extremes

State Highs State Lows

Community

WunderPhotos

Upload Photos

1,852,036 photos uploaded!

WunderBlogs® & News

Nearby

Air Quality

  Air Quality AQ Index Pollutant
Not available.

Snow Depth

Station Depth Elevation

Earthquake Activity

City Distance Mag. Time & Date
Minimum magnitude displayed is 2.5.

Coastal Water Temperatures

Place Temperature

Stations

Nearby Weather Stations

Station Location Temp. Windchill Dew Point Humidity Wind Precip. Elev Updated Type